Regional Weather Roundup
Issued by NWS Upton, NY

Current Version | Previous Version | Graphics & Text | Print | Product List | Glossary Off
Versions: 1 2 3 4 5 6 7 8 9 10 11 12 13 14 15 16 17 18 19 20 21 22 23 24 25 26 27 28 29 30 31 32 33 34 35 36 37 38 39 40 41 42 43 44 45 46 47 48 49 50

000
ASUS41 KOKX 011004
RWROKX

REGIONAL WEATHER ROUNDUP
NATIONAL WEATHER SERVICE NEW YORK NY
600 AM EDT SAT AUG 01 2015

NOTE: "FAIR" INDICATES FEW OR NO CLOUDS BELOW 12,000 FEET WITH NO
SIGNIFICANT WEATHER AND/OR OBSTRUCTIONS TO VISIBILITY.

NYZ071-072-176-178-NJZ106-104-011100-
NEW YORK CITY METRO AREA


CITY           SKY/WX    TMP DP  RH WIND       PRES   REMARKS
CENTRAL PARK   PTCLDY    75  59  57 MISG      29.82S
LAGUARDIA APRT PTCLDY    77  59  53 SW8       29.78S
KENNEDY INTL   PTCLDY    74  64  71 SW8       29.80S
NEWARK/LIBERTY PTCLDY    73  61  65 SW9       29.79S
BRNX BOT. GARD   N/A     75  59  57 W13       29.80R
TETERBORO      PTCLDY    71  60  68 S3        29.78R
$$

NYZ177-179-078>081-011100-
LONG ISLAND NEW YORK

CITY           SKY/WX    TMP DP  RH WIND       PRES   REMARKS
FARMINGDALE    CLEAR     73  63  70 SW5       29.79S
ISLIP          PTCLDY    71  63  75 SW6       29.77S
SHIRLEY        CLEAR     73  64  73 SW3       29.79S
WESTHAMPTON    PTCLDY    62  59  90 CALM      29.80S
MONTAUK POINT    N/A     76  64  66 SW6       29.79S
$$

NYZ052-065-067-011100-
HUDSON VALLEY

CITY           SKY/WX    TMP DP  RH WIND       PRES   REMARKS
WHITE PLAINS   PTCLDY    72  59  63 W6        29.79R
NEWBURGH       CLEAR     64  61  88 CALM      29.80
MONTGOMERY     MOCLDY    65  61  87 SW5       29.79R
POUGHKEEPSIE   CLEAR     62  59  90 CALM      29.77R
ALBANY         MOCLDY    65  60  84 CALM      29.76R
$$

NJZ001-105-106-008-010-013-015-019>022-104-011100-
NEW JERSEY

CITY           SKY/WX    TMP DP  RH WIND       PRES   REMARKS
NEWARK/LIBERTY PTCLDY    73  61  65 SW9       29.79S
TETERBORO      PTCLDY    71  60  68 S3        29.78R
CALDWELL       CLEAR     70  59  68 CALM      29.80S
MORRISTOWN     MOCLDY    63  59  88 CALM      29.80S
SOMERVILLE     PTCLDY    62  59  90 CALM      29.79S
SUSSEX         CLEAR     60  58  92 CALM      29.81S
ANDOVER          N/A     62  61  96 CALM      29.82S
TRENTON        CLOUDY    69  61  75 SW3       29.81S
MILLVILLE      CLEAR     71  66  84 SW3       29.84S
ATLANTIC CITY  CLEAR     73  66  78 SW6       29.84R
WRIGHTSTOWN    NOT AVBL
TOMS RIVER       N/A     70  64  83 W6        29.83R
BELMAR         CLEAR     70  61  73 SW6       29.82R
$$

PAZ047>061-062-071-011100-
EASTERN PENNSYLVANIA

CITY           SKY/WX    TMP DP  RH WIND       PRES   REMARKS
PHILADELPHIA   MOCLDY    75  66  73 SW7       29.83S
ALLENTOWN      CLEAR     63  60  90 NW5       29.82S
SCRANTON       MOCLDY    71  60  68 SW7       29.83R
$$

CTZ002-004>006-009-010-012-RIZ004-006-007-MAZ004-011-015-011100-
SOUTHERN NEW ENGLAND
 IN CT

CITY           SKY/WX    TMP DP  RH WIND       PRES   REMARKS
BRADLEY INTL   PTCLDY    67  58  72 CALM      29.75S
HARTFORD       PTCLDY    69  60  73 S7        29.76S
DANBURY        PTCLDY    66  58  75 MISG      29.80S
WTRBRY/OXFORD  PTCLDY    66  55  68 CALM      29.80S
BRIDGEPORT     MOCLDY    72  64  76 W5        29.77S
MERIDEN        PTCLDY    63  60  90 CALM      29.77S
NEW HAVEN      PTCLDY    66  64  93 CALM      29.77F
CHESTER        FAIR      70  64  83 W3        29.79S
GROTON         CLEAR     66  63  90 E3        29.77S
WILLIMANTIC    CLEAR     61  58  90 CALM      29.78S

 IN RI

CITY           SKY/WX    TMP DP  RH WIND       PRES   REMARKS
PROVIDENCE     PTCLDY    66  60  81 CALM      29.77S
BLOCK ISLAND     N/A     72  66  83 SW9       29.79S
WESTERLY       PTCLDY    62  60  93 CALM      29.78S

 IN MA

CITY           SKY/WX    TMP DP  RH WIND       PRES   REMARKS
BOSTON         MOCLDY    70  57  63 S6        29.74F
WORCESTER      CLEAR     66  54  65 W12       29.79R
WESTFIELD      CLEAR     60  59  96 CALM      29.76S
PROVINCETOWN   CLEAR     70  63  78 S6        29.76S
NANTUCKET      CLEAR     67  65  93 SW5       29.78S
$$

ANZ330-335-338-340-345-350-353-355-011100-
COASTAL MARINE OBSERVATIONS


STATION/POSITION TIME  SKY/WX   TEMP    WIND        PRES    VSBY  WAVE
                                AIR SEA DIR/SP/G                  HT/PER
                 (UTC)          (F)     (DEG/KT/KT) (MB)    (MI)  (FT/S)
NY HARB ENTRANCE 0850            76 76  240/ 14/ 16 1008.5          3/ 8
4S FIRE IS       NOT AVBL
20S FIRE ISLAND  0850            77 75  250/ 12/ 12 1008.8          4/11
GREAT SOUTH BAY  0915            78 80  270/ 14/ 17   N/A
23SW MTP         0950            75 74  250/ 10/ 10 1008.2          4/ 8
HUDSON CANYON    NOT AVBL
KINGS POINT      0900            78 71  240/  6/  8 1007.8
EXECUTION ROCKS  0900            74     210/  4/  6   N/A
CENTRAL LI SOUND NOT AVBL
EASTERN LI SOUND 0900            69 68   60/  2/  2   N/A
ROBBINS REEF     0900            75     250/ 13/ 14 1007.5
$$


>>>>>>>>>>>>>>>>>>>>>>>>>>>> KEY <<<<<<<<<<<<<<<<<<<<<<<<<<<
>                                                          <
>     SKY/WX - SKY CONDITION/PRESENT WEATHER               <
>     TMP    - TEMPERATURE IN FAHRENHEIT                   <
>     DP     - DEWPOINT IN FAHRENHEIT                      <
>     RH     - RELATIVE HUMIDITY IN PERCENT                <
>     WIND   - DIRECTION AND SPEED IN MPH                  <
>     PRES   - MEAN SEA LEVEL PRESSURE IN INCHES OF HG     <
>     WCI    - WIND CHILL INDEX                            <
>     VSB    - VISIBILITY IN MILES                         <
>     HX     - HEAT INDEX                                  <
>     TC     - TEMPERATURE IN CELSIUS                      <
>     VRB    - VARIABLE WIND DIRECTION                     <
>                                                          <
>>>>>>>>>>>>>>>>>>>>>>>>>>>> KEY <<<<<<<<<<<<<<<<<<<<<<<<<<<




USA.gov is the U.S. government's official web portal to all federal, state and local government web resources and services.